Time,TemperatureF,DewpointF,PressureIn,WindDirection,WindDirectionDegrees,WindSpeedMPH,WindSpeedGustMPH,Humidity,HourlyPrecipIn,Conditions,Clouds,dailyrainin,SoftwareType,DateUTC
2013-05-27 00:07:00,51.4,44.0,30.08,SE,142,1.0,2.0,75,0.00,,,0.00,weatherlink.com 1.10,2013-05-27 07:07:00,
2013-05-27 00:22:00,50.8,44.0,30.08,SSW,195,1.0,1.0,76,0.00,,,0.00,weatherlink.com 1.10,2013-05-27 07:22:00,
2013-05-27 00:37:00,50.5,43.0,30.09,SE,140,0.0,1.0,76,0.00,,,0.00,weatherlink.com 1.10,2013-05-27 07:37:00,
2013-05-27 00:52:00,50.1,43.0,30.09,SE,140,0.0,1.0,77,0.00,,,0.00,weatherlink.com 1.10,2013-05-27 07:52:00,
2013-05-27 01:07:00,49.7,43.0,30.09,ESE,122,2.0,2.0,78,0.00,,,0.00,weatherlink.com 1.10,2013-05-27 08:07:00,
2013-05-27 01:22:00,49.7,43.0,30.09,South,187,0.0,1.0,77,0.00,,,0.00,weatherlink.com 1.10,2013-05-27 08:22:00,
2013-05-27 01:37:00,49.4,42.0,30.08,SSE,153,0.0,1.0,76,0.00,,,0.00,weatherlink.com 1.10,2013-05-27 08:37:00,
2013-05-27 01:52:00,50.0,42.0,30.08,SSW,208,0.0,4.0,75,0.00,,,0.00,weatherlink.com 1.10,2013-05-27 08:52:00,
2013-05-27 02:07:00,50.2,42.0,30.08,ESE,108,0.0,2.0,73,0.00,,,0.00,weatherlink.com 1.10,2013-05-27 09:07:00,
2013-05-27 02:22:00,49.7,42.0,30.07,SW,229,0.0,1.0,74,0.00,,,0.00,weatherlink.com 1.10,2013-05-27 09:22:00,
2013-05-27 02:37:00,49.2,41.0,30.07,SW,224,1.0,2.0,74,0.00,,,0.00,weatherlink.com 1.10,2013-05-27 09:37:00,
2013-05-27 02:52:00,48.9,41.0,30.07,SSW,203,0.0,1.0,75,0.00,,,0.00,weatherlink.com 1.10,2013-05-27 09:52:00,
2013-05-27 03:07:00,48.2,41.0,30.06,SSW,212,0.0,1.0,76,0.00,,,0.00,weatherlink.com 1.10,2013-05-27 10:07:00,
2013-05-27 03:22:00,48.2,41.0,30.06,West,271,0.0,1.0,76,0.00,,,0.00,weatherlink.com 1.10,2013-05-27 10:22:00,
2013-05-27 03:37:00,48.7,41.0,30.06,West,271,0.0,2.0,74,0.00,,,0.00,weatherlink.com 1.10,2013-05-27 10:37:00,
2013-05-27 03:52:00,48.8,40.0,30.06,West,273,0.0,1.0,73,0.00,,,0.00,weatherlink.com 1.10,2013-05-27 10:52:00,
2013-05-27 04:07:00,48.5,40.0,30.06,West,271,0.0,1.0,72,0.00,,,0.00,weatherlink.com 1.10,2013-05-27 11:07:00,
2013-05-27 04:22:00,49.1,40.0,30.06,WSW,240,1.0,1.0,70,0.00,,,0.00,weatherlink.com 1.10,2013-05-27 11:22:00,
2013-05-27 04:37:00,49.5,40.0,30.06,SSW,212,0.0,1.0,70,0.00,,,0.00,weatherlink.com 1.10,2013-05-27 11:37:00,
2013-05-27 04:52:00,50.2,40.0,30.05,NW,315,1.0,1.0,68,0.00,,,0.00,weatherlink.com 1.10,2013-05-27 11:52:00,
2013-05-27 05:07:00,49.7,40.0,30.05,ESE,103,0.0,1.0,70,0.00,,,0.00,weatherlink.com 1.10,2013-05-27 12:07:00,
2013-05-27 05:22:00,49.8,40.0,30.05,ESE,117,1.0,1.0,70,0.00,,,0.00,weatherlink.com 1.10,2013-05-27 12:22:00,
2013-05-27 05:37:00,49.7,40.0,30.05,SSW,212,0.0,1.0,70,0.00,,,0.00,weatherlink.com 1.10,2013-05-27 12:37:00,
2013-05-27 05:53:00,50.1,40.0,30.05,ESE,104,0.0,1.0,68,0.00,,,0.00,weatherlink.com 1.10,2013-05-27 12:53:00,
2013-05-27 06:08:00,51.4,40.0,30.06,ESE,123,1.0,1.0,65,0.00,,,0.00,weatherlink.com 1.10,2013-05-27 13:08:00,
2013-05-27 06:23:00,53.0,38.0,30.06,NW,326,1.0,5.0,58,0.00,,,0.00,weatherlink.com 1.10,2013-05-27 13:23:00,
2013-05-27 06:38:00,53.8,39.0,30.06,NNE,18,3.0,6.0,57,0.00,,,0.00,weatherlink.com 1.10,2013-05-27 13:38:00,
2013-05-27 06:53:00,53.9,40.0,30.06,ENE,63,2.0,7.0,59,0.00,,,0.00,weatherlink.com 1.10,2013-05-27 13:53:00,
2013-05-27 07:08:00,53.9,43.0,30.07,WSW,253,4.0,9.0,66,0.00,,,0.00,weatherlink.com 1.10,2013-05-27 14:08:00,
2013-05-27 07:23:00,54.1,45.0,30.07,SSW,198,0.0,5.0,71,0.00,,,0.00,weatherlink.com 1.10,2013-05-27 14:23:00,
2013-05-27 07:38:00,54.3,47.0,30.07,East,85,1.0,5.0,75,0.00,,,0.00,weatherlink.com 1.10,2013-05-27 14:38:00,
2013-05-27 07:53:00,54.7,48.0,30.07,North,6,4.0,6.0,77,0.00,,,0.00,weatherlink.com 1.10,2013-05-27 14:53:00,
2013-05-27 08:08:00,55.1,48.0,30.07,NNW,328,1.0,3.0,77,0.00,,,0.00,weatherlink.com 1.10,2013-05-27 15:08:00,
2013-05-27 08:23:00,55.5,49.0,30.07,East,81,2.0,5.0,78,0.00,,,0.00,weatherlink.com 1.10,2013-05-27 15:23:00,
2013-05-27 08:38:00,55.6,49.0,30.08,NNE,32,2.0,6.0,78,0.00,,,0.00,weatherlink.com 1.10,2013-05-27 15:38:00,
2013-05-27 08:53:00,55.8,49.0,30.08,North,5,0.0,4.0,78,0.00,,,0.00,weatherlink.com 1.10,2013-05-27 15:53:00,
2013-05-27 09:08:00,56.1,49.0,30.08,South,187,1.0,5.0,77,0.00,,,0.00,weatherlink.com 1.10,2013-05-27 16:08:00,
2013-05-27 09:23:00,55.8,49.0,30.08,WSW,253,1.0,4.0,78,0.00,,,0.00,weatherlink.com 1.10,2013-05-27 16:23:00,
2013-05-27 09:38:00,55.4,49.0,30.08,SSE,148,0.0,5.0,79,0.00,,,0.00,weatherlink.com 1.10,2013-05-27 16:38:00,
2013-05-27 09:53:00,55.8,49.0,30.07,NNE,27,0.0,4.0,78,0.00,,,0.00,weatherlink.com 1.10,2013-05-27 16:53:00,
2013-05-27 10:08:00,57.1,50.0,30.07,NNW,330,2.0,4.0,76,0.00,,,0.00,weatherlink.com 1.10,2013-05-27 17:08:00,
2013-05-27 10:23:00,58.0,50.0,30.07,NNE,32,0.0,7.0,74,0.00,,,0.00,weatherlink.com 1.10,2013-05-27 17:23:00,
2013-05-27 10:38:00,58.5,50.0,30.07,ENE,77,1.0,3.0,74,0.00,,,0.00,weatherlink.com 1.10,2013-05-27 17:38:00,
2013-05-27 10:53:00,58.5,50.0,30.07,NNE,23,2.0,2.0,74,0.00,,,0.00,weatherlink.com 1.10,2013-05-27 17:53:00,
2013-05-27 11:08:00,57.9,50.0,30.08,NE,44,1.0,3.0,76,0.00,,,0.00,weatherlink.com 1.10,2013-05-27 18:08:00,
2013-05-27 11:23:00,57.6,52.0,30.09,NE,37,1.0,3.0,80,0.00,,,0.00,weatherlink.com 1.10,2013-05-27 18:23:00,
2013-05-27 11:38:00,57.0,52.0,30.09,NNW,328,0.0,3.0,82,0.00,,,0.00,weatherlink.com 1.10,2013-05-27 18:38:00,
2013-05-27 11:53:00,56.9,52.0,30.09,NNE,13,0.0,3.0,82,0.00,,,0.00,weatherlink.com 1.10,2013-05-27 18:53:00,
2013-05-27 12:08:00,57.6,52.0,30.08,NNE,20,1.0,2.0,81,0.00,,,0.00,weatherlink.com 1.10,2013-05-27 19:08:00,
2013-05-27 12:23:00,58.7,52.0,30.08,East,79,1.0,3.0,78,0.00,,,0.00,weatherlink.com 1.10,2013-05-27 19:23:00,
2013-05-27 12:38:00,59.6,52.0,30.08,East,86,0.0,6.0,75,0.00,,,0.00,weatherlink.com 1.10,2013-05-27 19:38:00,
2013-05-27 12:53:00,61.0,51.0,30.08,NE,37,5.0,5.0,70,0.00,,,0.00,weatherlink.com 1.10,2013-05-27 19:53:00,
2013-05-27 13:08:00,61.1,51.0,30.08,ENE,68,2.0,9.0,70,0.00,,,0.00,weatherlink.com 1.10,2013-05-27 20:08:00,
2013-05-27 13:23:00,62.7,52.0,30.08,West,267,2.0,9.0,67,0.00,,,0.00,weatherlink.com 1.10,2013-05-27 20:23:00,
2013-05-27 13:38:00,64.4,52.0,30.07,SE,124,5.0,7.0,64,0.00,,,0.00,weatherlink.com 1.10,2013-05-27 20:38:00,
2013-05-27 13:54:00,65.2,51.0,30.07,ESE,102,1.0,9.0,61,0.00,,,0.00,weatherlink.com 1.10,2013-05-27 20:54:00,
2013-05-27 14:09:00,63.6,52.0,30.07,ESE,109,2.0,6.0,65,0.00,,,0.00,weatherlink.com 1.10,2013-05-27 21:09:00,
2013-05-27 14:24:00,62.5,52.0,30.07,ENE,57,1.0,6.0,68,0.00,,,0.00,weatherlink.com 1.10,2013-05-27 21:24:00,
2013-05-27 14:39:00,63.7,52.0,30.06,ESE,103,3.0,8.0,67,0.00,,,0.00,weatherlink.com 1.10,2013-05-27 21:39:00,
2013-05-27 14:54:00,63.2,53.0,30.06,ENE,71,3.0,8.0,70,0.00,,,0.00,weatherlink.com 1.10,2013-05-27 21:54:00,
2013-05-27 15:09:00,61.5,52.0,30.07,ENE,71,2.0,6.0,71,0.00,,,0.00,weatherlink.com 1.10,2013-05-27 22:09:00,
2013-05-27 15:24:00,59.8,52.0,30.07,East,96,2.0,7.0,75,0.00,,,0.00,weatherlink.com 1.10,2013-05-27 22:24:00,
2013-05-27 15:39:00,60.0,52.0,30.06,ENE,74,2.0,7.0,74,0.00,,,0.00,weatherlink.com 1.10,2013-05-27 22:39:00,
2013-05-27 15:54:00,60.5,53.0,30.06,SE,139,4.0,7.0,75,0.00,,,0.00,weatherlink.com 1.10,2013-05-27 22:54:00,
2013-05-27 16:09:00,59.2,52.0,30.06,East,96,6.0,7.0,77,0.00,,,0.00,weatherlink.com 1.10,2013-05-27 23:09:00,
2013-05-27 16:24:00,60.3,53.0,30.05,East,85,3.0,6.0,76,0.00,,,0.00,weatherlink.com 1.10,2013-05-27 23:24:00,
2013-05-27 16:39:00,60.9,53.0,30.05,East,100,4.0,7.0,74,0.00,,,0.00,weatherlink.com 1.10,2013-05-27 23:39:00,
2013-05-27 16:54:00,60.4,52.0,30.05,ESE,102,2.0,7.0,74,0.00,,,0.00,weatherlink.com 1.10,2013-05-27 23:54:00,
2013-05-27 17:09:00,59.9,52.0,30.05,ESE,110,1.0,6.0,75,0.00,,,0.00,weatherlink.com 1.10,2013-05-28 00:09:00,
2013-05-27 17:24:00,59.6,52.0,30.04,NE,47,2.0,4.0,75,0.00,,,0.00,weatherlink.com 1.10,2013-05-28 00:24:00,
2013-05-27 17:39:00,59.2,52.0,30.04,East,94,2.0,5.0,77,0.00,,,0.00,weatherlink.com 1.10,2013-05-28 00:39:00,
2013-05-27 17:54:00,58.3,51.0,30.03,ENE,74,2.0,5.0,78,0.00,,,0.00,weatherlink.com 1.10,2013-05-28 00:54:00,
2013-05-27 18:09:00,57.7,51.0,30.03,ESE,113,1.0,4.0,79,0.00,,,0.00,weatherlink.com 1.10,2013-05-28 01:09:00,
2013-05-27 18:24:00,57.3,51.0,30.03,East,96,3.0,8.0,79,0.00,,,0.00,weatherlink.com 1.10,2013-05-28 01:24:00,
2013-05-27 18:39:00,56.3,51.0,30.03,East,93,3.0,3.0,82,0.00,,,0.00,weatherlink.com 1.10,2013-05-28 01:39:00,
2013-05-27 18:54:00,55.2,51.0,30.03,SSE,153,1.0,4.0,85,0.00,,,0.00,weatherlink.com 1.10,2013-05-28 01:54:00,
2013-05-27 19:09:00,54.5,50.0,30.02,SSE,152,1.0,5.0,85,0.00,,,0.00,weatherlink.com 1.10,2013-05-28 02:09:00,
2013-05-27 19:24:00,54.1,50.0,30.02,SE,125,2.0,4.0,86,0.00,,,0.00,weatherlink.com 1.10,2013-05-28 02:24:00,
2013-05-27 19:39:00,53.8,50.0,30.02,ESE,116,1.0,5.0,87,0.00,,,0.00,weatherlink.com 1.10,2013-05-28 02:39:00,
2013-05-27 19:54:00,53.7,51.0,30.02,ESE,120,1.0,4.0,89,0.00,,,0.00,weatherlink.com 1.10,2013-05-28 02:54:00,
2013-05-27 20:09:00,53.5,50.0,30.02,ESE,108,0.0,2.0,89,0.00,,,0.00,weatherlink.com 1.10,2013-05-28 03:09:00,
2013-05-27 20:24:00,53.3,51.0,30.02,East,98,1.0,1.0,90,0.00,,,0.00,weatherlink.com 1.10,2013-05-28 03:24:00,
2013-05-27 20:39:00,53.3,51.0,30.02,ESE,103,0.0,1.0,90,0.00,,,0.00,weatherlink.com 1.10,2013-05-28 03:39:00,
2013-05-27 20:54:00,53.3,51.0,30.01,SE,136,0.0,1.0,90,0.00,,,0.00,weatherlink.com 1.10,2013-05-28 03:54:00,
2013-05-27 21:09:00,53.2,51.0,30.00,SE,127,0.0,1.0,91,0.00,,,0.00,weatherlink.com 1.10,2013-05-28 04:09:00,
2013-05-27 21:24:00,53.0,51.0,30.00,SE,138,1.0,2.0,92,0.01,,,0.01,weatherlink.com 1.10,2013-05-28 04:24:00,
2013-05-27 21:39:00,52.7,51.0,30.01,SE,132,0.0,1.0,92,0.01,,,0.01,weatherlink.com 1.10,2013-05-28 04:39:00,
2013-05-27 21:54:00,52.7,51.0,30.02,SE,132,0.0,0.0,93,0.01,,,0.01,weatherlink.com 1.10,2013-05-28 04:54:00,
2013-05-27 22:09:00,52.6,51.0,30.02,ESE,113,0.0,1.0,93,0.01,,,0.01,weatherlink.com 1.10,2013-05-28 05:09:00,
2013-05-27 22:24:00,52.5,51.0,30.01,ESE,102,0.0,1.0,94,0.00,,,0.01,weatherlink.com 1.10,2013-05-28 05:24:00,
2013-05-27 22:39:00,52.7,51.0,30.01,ESE,102,0.0,0.0,94,0.00,,,0.01,weatherlink.com 1.10,2013-05-28 05:39:00,
2013-05-27 22:54:00,52.6,51.0,30.00,ESE,102,0.0,0.0,94,0.00,,,0.01,weatherlink.com 1.10,2013-05-28 05:54:00,
2013-05-27 23:09:00,52.6,51.0,29.99,ESE,102,0.0,0.0,93,0.00,,,0.01,weatherlink.com 1.10,2013-05-28 06:09:00,
2013-05-27 23:24:00,52.7,51.0,30.00,ESE,102,0.0,0.0,94,0.00,,,0.01,weatherlink.com 1.10,2013-05-28 06:24:00,
2013-05-27 23:39:00,52.8,51.0,30.00,East,101,0.0,0.0,93,0.00,,,0.01,weatherlink.com 1.10,2013-05-28 06:39:00,
2013-05-27 23:54:00,52.7,51.0,30.00,ESE,102,0.0,0.0,93,0.00,,,0.01,weatherlink.com 1.10,2013-05-28 06:54:00,